Spokane, WA
on Monday, December 3, 2012

Monday
Previous Day Next Day
Daily Summary
 ActualAverageRecord
Temperature
Mean Temperature °F 29°F  
Max Temperature 49°F 34°F 55°F (1918)
Min Temperature 39°F 25°F -4°F (1919)
Degree Days
Heating Degree Days 21 36  
Month to date heating degree days 66 106  
Since 1 July heating degree days 1451 1773  
Cooling Degree Days 0 0  
Month to date cooling degree days 0 0  
Year to date cooling degree days 535 450  
Moisture
Dew Point 34°F   
Average Humidity 70    
Maximum Humidity 79    
Minimum Humidity 60    
Precipitation
Precipitation T in 0.09 in 1.18 in (2007)
Month to date precipitation 0.43 0.26  
Year to date precipitation 19.17 14.52  
Snow
Snow 0.00 in 0.40 in 3.70 in (1947)
Month to date snowfall 0.0 1.2  
Since 1 July snowfall 5.9 8.7  
Snow Depth 0.00 in   
Wind
Wind Speed 16 mph   
Max Wind Speed 32 mph   
Max Gust Speed 39 mph   
Visibility 10 miles   
Events     

Key: T is trace of precipitation, MM is missing value
Source: NWS Daily Summary
Time(PST)TemperatureDew PointHumidity Pressure Visibility Wind DirectionWind SpeedGust SpeedPrecipitationEvents Conditions
12:53 AM 39.0°F 33.1°F 79% 29.83 in 10.0 miles SSW 20.7 mph - N/A   Overcast
1:53 AM 39.9°F 32.0°F 73% 29.85 in 10.0 miles SSW 23.0 mph 29.9 mph N/A   Overcast
2:53 AM 39.9°F 32.0°F 73% 29.87 in 10.0 miles SSW 18.4 mph 27.6 mph N/A   Overcast
3:53 AM 41.0°F 32.0°F 70% 29.88 in 10.0 miles SSW 17.3 mph - 0.00 in   Overcast
4:53 AM 41.0°F 32.0°F 70% 29.89 in 10.0 miles SSW 15.0 mph 24.2 mph N/A   Overcast
5:53 AM 41.0°F 32.0°F 70% 29.91 in 10.0 miles SW 21.9 mph - N/A   Scattered Clouds
6:53 AM 39.2°F 32.0°F 75% 29.91 in 10.0 miles SW 16.1 mph - N/A   Scattered Clouds
7:53 AM 39.0°F 32.0°F 76% 29.94 in 10.0 miles SSW 20.7 mph 29.9 mph N/A   Scattered Clouds
8:53 AM 41.0°F 33.1°F 73% 29.96 in 10.0 miles SSW 24.2 mph 28.8 mph N/A   Scattered Clouds
9:53 AM 43.0°F 34.0°F 71% 30.00 in 10.0 miles SW 23.0 mph 34.5 mph N/A   Mostly Cloudy
10:53 AM 46.0°F 34.0°F 63% 30.01 in 10.0 miles SW 25.3 mph 34.5 mph N/A   Mostly Cloudy
11:53 AM 46.9°F 35.1°F 63% 29.99 in 10.0 miles SW 25.3 mph 35.7 mph N/A   Mostly Cloudy
12:53 PM 46.9°F 35.1°F 63% 30.00 in 10.0 miles SW 19.6 mph 28.8 mph N/A   Mostly Cloudy
1:53 PM 46.9°F 35.1°F 63% 30.01 in 10.0 miles SW 18.4 mph 29.9 mph N/A   Mostly Cloudy
2:53 PM 46.0°F 35.1°F 66% 30.03 in 10.0 miles SW 17.3 mph 29.9 mph N/A   Mostly Cloudy
3:53 PM 45.0°F 35.1°F 68% 30.06 in 10.0 miles SSW 11.5 mph - N/A   Overcast
4:53 PM 44.1°F 35.1°F 71% 30.06 in 10.0 miles SSW 11.5 mph - N/A   Overcast
5:53 PM 44.1°F 35.1°F 71% 30.06 in 10.0 miles South 9.2 mph - N/A   Overcast
6:53 PM 43.0°F 35.1°F 74% 30.06 in 10.0 miles South 5.8 mph - N/A   Overcast
7:53 PM 43.0°F 35.1°F 74% 30.05 in 10.0 miles SSE 9.2 mph - N/A   Overcast
8:53 PM 42.1°F 35.1°F 76% 30.03 in 10.0 miles SSE 9.2 mph - N/A   Mostly Cloudy
9:53 PM 42.1°F 33.1°F 70% 30.01 in 10.0 miles SSE 8.1 mph - N/A   Mostly Cloudy
10:53 PM 41.0°F 33.1°F 73% 29.97 in 10.0 miles SE 8.1 mph - N/A   Mostly Cloudy
11:53 PM 42.1°F 33.1°F 70% 29.93 in 10.0 miles SE 10.4 mph 17.3 mph N/A   Overcast
Moon Phase
Dec. 03 Dec. 06 Dec. 13 Dec. 20 Dec. 28
Sunrise:07:20 AM (PST) Moon Rise:09:03 PM (PST)12/3
Sunset:03:59 PM (PST) Moon Set:10:35 AM (PST)12/3

Copyright © 2014 The Weather Underground, Inc.